This demonstration page uses our WeatherBlox Daily Observations layout. Learn more.

38.89511, -77.03637

Hourly Observations for April 7, 2015

Temp ( °F °C ) Dew Point ( °F °C ) Humidity (%) Winds ( mph kmh ) Pressure ( in mb ) Visibility ( mi km ) Precip ( " mm )
12:52 am 00:52 Mostly Cloudy 64 18 52 11 64 64 S 12 19 30.15 1021 10 16.09344 0 0
1:52 am 01:52 Cloudy 64 18 52 11 64 64 S 9 15 30.15 1021 10 16.09344 0 0
2:52 am 02:52 Cloudy with Light Rain 63 17 54 12 73 73 S 7 11 30.18 1022 10 16.09344 0.001 0.001
3:52 am 03:52 Cloudy with Light Rain 64 18 54 12 68 68 SW 6 9 30.15 1021 10 16.09344 0.01 0.254
4:52 am 04:52 Cloudy 63 17 54 12 73 73 WSW 3 6 30.15 1021 10 16.09344 0.01 0.254
5:52 am 05:52 Cloudy with Light Rain 63 17 54 12 73 73 Calm 30.15 1021 10 16.09344 0.001 0.001
6:52 am 06:52 Mostly Cloudy 59 15 54 12 82 82 S 6 9 30.18 1022 10 16.09344 0.001 0.001
7:52 am 07:52 Mostly Cloudy 63 17 54 12 73 73 S 8 13 30.18 1022 10 16.09344 0 0
8:52 am 08:52 Mostly Cloudy 64 18 55 13 73 73 S 10 17 30.18 1022 10 16.09344 0 0
9:52 am 09:52 Cloudy 64 18 55 13 73 73 S 8 13 30.18 1022 10 16.09344 0.001 0.001
10:52 am 10:52 Cloudy 66 19 55 13 68 68 S 8 13 30.18 1022 10 16.09344 0 0
11:52 am 11:52 Cloudy 66 19 57 14 73 73 S 9 15 30.18 1022 10 16.09344 0 0
12:52 pm 12:52 Cloudy 70 21 57 14 64 64 S 9 15 30.15 1021 10 16.09344 0 0
1:52 pm 13:52 Cloudy 72 22 59 15 65 65 S 13 20 30.15 1021 10 16.09344 0 0
2:17 pm 14:17 Cloudy 70 21 57 14 64 64 S 8 13 30.12 1020 10 16.09344 0 0
2:35 pm 14:35 Cloudy 70 21 57 14 64 64 S 9 15 30.12 1020 10 16.09344 0 0
2:52 pm 14:52 Cloudy 70 21 57 14 64 64 S 9 15 30.12 1020 10 16.09344 0 0
3:52 pm 15:52 Cloudy 70 21 57 14 64 64 S 15 24 30.09 1019 10 16.09344 0 0
4:52 pm 16:52 Cloudy 70 21 57 14 64 64 S 10 17 30.09 1019 10 16.09344 0 0
5:52 pm 17:52 Cloudy 70 21 57 14 64 64 S 12 19 30.09 1019 10 16.09344 0 0
6:52 pm 18:52 Cloudy 66 19 57 14 73 73 S 8 13 30.09 1019 10 16.09344 0 0
7:52 pm 19:52 Cloudy 68 20 59 15 73 73 S 8 13 30.09 1019 10 16.09344 0 0
8:52 pm 20:52 Cloudy 66 19 57 14 73 73 S 8 13 30.12 1020 10 16.09344 0 0
9:52 pm 21:52 Cloudy 64 18 57 14 78 78 SSE 5 7 30.12 1020 10 16.09344 0 0
10:52 pm 22:52 Cloudy 64 18 61 16 88 88 S 3 6 30.12 1020 10 16.09344 0 0
11:40 pm 23:40 Cloudy 66 19 61 16 83 83 Calm 30.15 1021 10 16.09344 0 0
11:52 pm 23:52 Cloudy 64 18 61 16 88 88 NNE 6 9 30.15 1021 10 16.09344 0 0

Powered by AerisWeather